Find Starlink 3451

NORAD ID: 51749 Int'l Des: 2022-016 Owner: SPXS Country: US Constellation: starlink operational
LEOCIRCULAR

現在のビュー

3D地球を読み込み中...

About Starlink 3451

Starlink 3451 (NORAD 51749) is a starlink constellation satellite (v1.5) launched Feb 21, 2022 by SPXS of US. It operates in LEO, CIRCULAR orbit with a mass of 297.00 kg.

Starlink 3451について

説明を読み込み中...

次回通過

Passes for default location (London). Set your location on the main map for personalized predictions.

高度履歴

Loading altitude history...

軌道要素

1 51749U 22016AM 26194.66668981 .00052382 00000-0 16899-2 0 9994
2 51749 53.1608 111.2659 0001443 92.2707 28.1608 15.31662531 5761
Epoch: Jul 13, 2026 • Age: 11 hours

現在のステータス

高度 474.1 km
遠地点 / 近地点 N/A
速度 7.63 km/s
衛星直下点 42.79°N, 179.55°W
打ち上げ日 Feb 21, 2022
運用期間 4.3 years
タイプ internet

技術仕様

分類 Payload
質量 297.00 kg
乾燥質量 275.00 kg
総質量 297.00 kg
長さ 0.20 m
直径 2.80 m
スパン 9.00 m
形状 Box + pan
製造者 SPXS
バスタイプ Starlink
フェーズステータス In Orbit
所有者/国 SPXS/US

Most Searched